Regional Weather Roundup
Issued by NWS

Home | Current Version | Previous Version | Text Only | Print | Product List | Glossary Off
Versions: 1 2 3 4 5 6 7 8 9 10 11 12 13 14 15 16 17 18 19 20 21 22 23 24 25 26 27 28 29 30 31 32 33 34 35 36 37 38 39 40 41 42 43 44 45 46 47 48 49 50

000
ASUS45 KABQ 170810
RWRNM
WEATHER ROUNDUP FOR NEW MEXICO
NATIONAL WEATHER SERVICE ALBUQUERQUE NM
200 AM MDT THU APR 17 2014

NOTE: "FAIR" MEANS FEW OR NO CLOUDS BELOW 12,000 FEET AGL WITH NO
       SIGNIFICANT WEATHER OR OBSTRUCTIONS TO VISION.

      THIS PRODUCT IS RELEASED AS TWO VERSIONS.  ONE VERSION NEAR
      THE TOP OF THE HOUR CONTAINING PRELIMINARY DATA FROM ALBUQUERQUE
      AND OTHER STATIONS.  A FINAL VERSION WITH ADDITIONAL DATA IS
      ISSUED ABOUT 10 MINUTES AFTER THE HOUR.

NMZ501-503-504-510>518-170900-
NORTHWEST PLATEAU/NORTHCENTRAL MOUNTAINS

CITY           SKY/WX    TMP DP  RH WIND       PRES   REMARKS
FARMINGTON     CLEAR     38  21  50 W7        30.00R WCI  33
LOS ALAMOS     PTCLDY    44  24  46 S6        30.06S
SANTA FE       PTCLDY    43  32  65 S7        30.03R
TAOS           MOCLDY    36  30  80 N12       30.10F WCI  27
ANGEL FIRE     LGT SNOW  32  31  94 NE5       30.13S WCI  27

$$
NMZ402-403-502-505>509-170900-
WESTCENTRAL MOUNTAINS/SOUTHWEST MOUNTAINS

CITY           SKY/WX    TMP DP  RH WIND       PRES   REMARKS
GALLUP         CLEAR     32  17  54 CALM      30.06R
GRANTS         CLEAR     39  20  46 N6        30.06S WCI  35
SILVER CITY    CLEAR     50   1  13 NW8       30.00S

$$
NMZ407-409-411-412-170900-
SOUTHERN DESERTS

CITY           SKY/WX    TMP DP  RH WIND       PRES   REMARKS
LORDSBURG      FAIR      52   3  14 W5        29.95S
DEMING         CLEAR     53   2  12 W6        29.92R
LAS CRUCES     PTCLDY    58   1  10 W10       29.92R
HOLLOMAN AFB   MOCLDY    63  11  13 NW6       29.85R
ALAMOGORDO     MOCLDY    66  10  11 NE8       29.85S
T OR C         CLEAR     59   5  11 NW7       29.93R

$$
NMZ519>523-170900-
CENTRAL VALLEYS/CENTRAL HIGHLANDS

CITY           SKY/WX    TMP DP  RH WIND       PRES   REMARKS
ALBUQUERQUE    MOCLDY    56  26  31 E9        30.00S
DOUBLE EAGLE   PTCLDY    46  23  40 NW14      30.02S
MORIARTY ARPT  CLOUDY    48  31  50 CALM      30.05R
CLINES CORNERS CLOUDY    43  28  55 E10       30.05R
BELEN          CLOUDY    53  23  31 CALM      29.99S
SOCORRO        FAIR      55  21  26 N6        29.98R

$$
NMZ524>526-539-540-170900-
SOUTHCENTRAL MOUNTAINS

CITY           SKY/WX    TMP DP  RH WIND       PRES   REMARKS
RUIDOSO        MOCLDY    45  19  36 S8        30.03F

$$
NMZ527>531-170900-
NORTHEAST HIGHLANDS/NORTHEAST PLAINS

CITY           SKY/WX    TMP DP  RH WIND       PRES   REMARKS
LAS VEGAS      LGT RAIN  37  31  78 NE14      30.12R WCI  28
RATON          LGT SNOW  34  33  96 N6        30.13S FOG     WCI  29
CLAYTON        CLOUDY    43  30  60 NE18      30.08F

$$
NMZ532>537-170900-
EASTCENTRAL PLAINS

CITY           SKY/WX    TMP DP  RH WIND       PRES   REMARKS
TUCUMCARI      PTCLDY    49  30  48 NE20G33   30.02R
CANNON AFB     CLEAR     49  27  41 N24G37    29.93R
CLOVIS AIRPORT PTCLDY    48  27  43 N23G29    29.95R

$$
NMZ028-029-538-170900-
SOUTHEAST PLAINS

CITY           SKY/WX    TMP DP  RH WIND       PRES   REMARKS
ROSWELL        MOCLDY    58  26  29 N25G35    29.91R
ARTESIA        CLOUDY    59  27  29 N29G36    29.92R
CARLSBAD       LGT RAIN  61  26  26 NW33G41   29.84R
HOBBS          CLEAR     50  32  50 S9        29.84R


$$



USA.gov is the U.S. government's official web portal to all federal, state and local government web resources and services.